Weather History for KAXA - March, 2013

Change the Weather History Date:

Friday, March 1, 2013

  Actual Average Record
Temperature  
Mean Temperature 19 °F -  
Max Temperature 24 °F 30 °F 55 °F (1999)
Min Temperature 12 °F 16 °F -5 °F (2014)
Degree Days  
Heating Degree Days 46    
Moisture  
Dew Point 18 °F    
Average Humidity 82    
Maximum Humidity 93    
Minimum Humidity 69    
Precipitation  
Precipitation 0.00 in - - ()
Sea Level Pressure  
Sea Level Pressure 30.25 in    
Wind  
Wind Speed 10 mph (North)    
Max Wind Speed 16 mph    
Max Gust Speed 20 mph    
Visibility 10 miles    
Events Rain , Snow    
Averages and records for this station are not official NWS values.
T = Trace of Precipitation, MM = Missing Value Source: NWS Daily Summary

Daily Weather History Graph

Daily Weather History Graph

Search for Another Location

Airport or City:

Trip Planner

Search our weather history database for the weather conditions in past years. The results will help you decide how hot, cold, wet, or windy it might be!

Date:

Astronomy

Mar. 01, 2013 Rise Set
Actual Time 6:52 AM CST 6:06 PM CST
Civil Twilight 6:24 AM CST 6:35 PM CST
Nautical Twilight 5:51 AM CST 7:08 PM CST
Astronomical Twilight 5:18 AM CST 7:41 PM CST
Moon 10:49 PM CST (3/1) 8:32 AM CST (3/1)
Length of Visible Light 12h 11m
Length of Day
11h 14m
Waning Gibbous, 83% of the Moon is Illuminated
Mar 1
Waning Gibbous
Mar 4
Last Quarter
Mar 11
New
Mar 19
First Quarter
Mar 27
Full

Hourly Weather History & Observations

Time (CST) Temp. Windchill Dew Point Humidity Pressure Visibility Wind Dir Wind Speed Gust Speed Precip Events Conditions
12:15 AM 24.8 °F 16.1 °F 23.0 °F 93% 30.16 in 10.0 mi North 8.1 mph - N/A   Overcast
12:35 AM 24.8 °F 15.3 °F 23.0 °F 93% 30.16 in 10.0 mi North 9.2 mph - N/A   Overcast
12:55 AM 24.8 °F 15.3 °F 23.0 °F 93% 30.16 in 10.0 mi North 9.2 mph - N/A   Overcast
1:15 AM 24.8 °F 15.3 °F 23.0 °F 93% 30.16 in 10.0 mi North 9.2 mph - N/A   Overcast
1:35 AM 24.8 °F 16.1 °F 21.2 °F 86% 30.16 in 10.0 mi North 8.1 mph - N/A   Overcast
1:55 AM 24.8 °F 16.1 °F 21.2 °F 86% 30.16 in 10.0 mi North 8.1 mph - N/A   Overcast
2:15 AM 24.8 °F 16.1 °F 21.2 °F 86% 30.16 in 10.0 mi North 8.1 mph - N/A Rain Light Freezing Rain
2:35 AM 23.0 °F 14.7 °F 21.2 °F 93% 30.16 in 10.0 mi North 6.9 mph - N/A   Overcast
2:55 AM 23.0 °F 15.8 °F 21.2 °F 93% 30.16 in 10.0 mi NNW 5.8 mph - N/A Rain Light Freezing Rain
3:35 AM 23.0 °F 13.9 °F 21.2 °F 93% 30.16 in 9.0 mi NNW 8.1 mph - N/A Rain Light Freezing Rain
3:55 AM 23.0 °F 15.8 °F 21.2 °F 93% 30.17 in 8.0 mi NNW 5.8 mph - N/A Rain Light Freezing Rain
4:15 AM 23.0 °F 14.7 °F 21.2 °F 93% 30.17 in 8.0 mi North 6.9 mph - N/A Rain Light Freezing Rain
4:35 AM 23.0 °F 13.9 °F 21.2 °F 93% 30.17 in 7.0 mi North 8.1 mph - N/A Rain Light Freezing Rain
4:55 AM 23.0 °F 13.9 °F 21.2 °F 93% 30.18 in 6.0 mi North 8.1 mph - N/A Rain Light Freezing Rain
5:15 AM 23.0 °F 13.9 °F 21.2 °F 93% 30.18 in 7.0 mi North 8.1 mph - N/A Snow Light Snow
5:35 AM 23.0 °F 13.9 °F 21.2 °F 93% 30.19 in 8.0 mi North 8.1 mph - N/A Rain Light Freezing Rain
6:15 AM 23.0 °F 13.9 °F 21.2 °F 93% 30.19 in 10.0 mi North 8.1 mph - N/A   Overcast
6:35 AM 23.0 °F 14.7 °F 21.2 °F 93% 30.19 in 10.0 mi North 6.9 mph - N/A   Overcast
6:55 AM 23.0 °F 14.7 °F 21.2 °F 93% 30.20 in 10.0 mi North 6.9 mph - N/A   Overcast
7:15 AM 23.0 °F 13.9 °F 19.4 °F 86% 30.21 in 10.0 mi North 8.1 mph - N/A Rain Light Freezing Rain
7:35 AM 23.0 °F 13.9 °F 19.4 °F 86% 30.21 in 10.0 mi North 8.1 mph - N/A   Overcast
8:15 AM 23.0 °F 12.4 °F 19.4 °F 86% 30.23 in 9.0 mi NNE 10.4 mph - N/A Rain Light Freezing Rain
8:35 AM 23.0 °F 12.4 °F 19.4 °F 86% 30.24 in 8.0 mi NE 10.4 mph - N/A Rain Light Freezing Rain
9:15 AM 23.0 °F 11.1 °F 17.6 °F 80% 30.25 in 9.0 mi NNE 12.7 mph - N/A Rain Light Freezing Rain
9:35 AM 23.0 °F 10.6 °F 17.6 °F 80% 30.25 in 8.0 mi NE 13.8 mph - N/A Rain Light Freezing Rain
10:15 AM 23.0 °F 10.6 °F 17.6 °F 80% 30.26 in 10.0 mi NE 13.8 mph - N/A   Overcast
10:35 AM 23.0 °F 10.1 °F 17.6 °F 80% 30.26 in 10.0 mi NE 15.0 mph - N/A   Overcast
10:55 AM 23.0 °F 10.1 °F 19.4 °F 86% 30.26 in 10.0 mi NNE 15.0 mph - N/A   Overcast
11:15 AM 23.0 °F 10.1 °F 17.6 °F 80% 30.27 in 10.0 mi NE 15.0 mph - N/A   Overcast
11:35 AM 24.8 °F 12.9 °F 17.6 °F 74% 30.27 in 10.0 mi NNE 13.8 mph - N/A   Overcast
11:55 AM 24.8 °F 12.4 °F 19.4 °F 80% 30.27 in 10.0 mi NNE 15.0 mph - N/A   Overcast
12:15 PM 24.8 °F 12.9 °F 17.6 °F 74% 30.27 in 10.0 mi NNE 13.8 mph - N/A   Overcast
12:35 PM 24.8 °F 12.9 °F 17.6 °F 74% 30.27 in 10.0 mi NNE 13.8 mph - N/A   Overcast
12:55 PM 24.8 °F 12.4 °F 15.8 °F 69% 30.27 in 10.0 mi NNE 15.0 mph - N/A   Overcast
1:35 PM 24.8 °F 13.4 °F 15.8 °F 69% 30.27 in 10.0 mi NNE 12.7 mph 18.4 mph N/A   Overcast
1:55 PM 24.8 °F 11.9 °F 15.8 °F 69% 30.26 in 10.0 mi NNE 16.1 mph - N/A   Overcast
2:15 PM 24.8 °F 14.0 °F 15.8 °F 69% 30.27 in 10.0 mi North 11.5 mph 19.6 mph N/A   Overcast
2:35 PM 24.8 °F 12.4 °F 15.8 °F 69% 30.26 in 10.0 mi NNE 15.0 mph - N/A   Overcast
2:55 PM 24.8 °F 12.9 °F 15.8 °F 69% 30.27 in 10.0 mi NNE 13.8 mph - N/A   Overcast
3:15 PM 24.8 °F 11.9 °F 15.8 °F 69% 30.27 in 10.0 mi NNE 16.1 mph - N/A   Overcast
3:35 PM 24.8 °F 13.4 °F 15.8 °F 69% 30.27 in 10.0 mi NNE 12.7 mph - N/A   Overcast
3:55 PM 24.8 °F 15.3 °F 15.8 °F 69% 30.27 in 10.0 mi NNE 9.2 mph 16.1 mph N/A   Overcast
4:15 PM 24.8 °F 16.1 °F 17.6 °F 74% 30.27 in - North 8.1 mph 16.1 mph N/A   Overcast
4:35 PM 24.8 °F 14.0 °F 15.8 °F 69% 30.27 in 10.0 mi North 11.5 mph 17.3 mph N/A   Overcast
4:55 PM 24.8 °F 15.3 °F 17.6 °F 74% 30.28 in 10.0 mi NNE 9.2 mph - N/A   Overcast
5:15 PM 24.8 °F 14.0 °F 17.6 °F 74% 30.29 in 10.0 mi North 11.5 mph - N/A   Overcast
5:35 PM 24.8 °F 14.0 °F 17.6 °F 74% 30.29 in 10.0 mi North 11.5 mph - N/A   Overcast
5:55 PM 24.8 °F 15.3 °F 17.6 °F 74% 30.29 in 10.0 mi North 9.2 mph - N/A   Overcast
6:15 PM 23.0 °F 11.7 °F 17.6 °F 80% 30.30 in 10.0 mi North 11.5 mph 17.3 mph N/A   Overcast
6:35 PM 23.0 °F 13.9 °F 17.6 °F 80% 30.30 in 10.0 mi North 8.1 mph 13.8 mph N/A   Overcast
6:55 PM 23.0 °F 13.1 °F 17.6 °F 80% 30.31 in 10.0 mi North 9.2 mph - N/A   Overcast
7:15 PM 23.0 °F 12.4 °F 17.6 °F 80% 30.31 in 10.0 mi North 10.4 mph - N/A   Overcast
7:35 PM 23.0 °F 12.4 °F 17.6 °F 80% 30.31 in 10.0 mi North 10.4 mph - N/A   Overcast
8:15 PM 23.0 °F 12.4 °F 17.6 °F 80% 30.31 in 10.0 mi North 10.4 mph - N/A   Overcast
8:35 PM 23.0 °F 10.6 °F 15.8 °F 74% 30.31 in 10.0 mi North 13.8 mph - N/A   Overcast
8:55 PM 23.0 °F 13.1 °F 17.6 °F 80% 30.31 in 10.0 mi North 9.2 mph - N/A   Overcast
9:15 PM 21.2 °F 11.7 °F 17.6 °F 86% 30.31 in 10.0 mi North 8.1 mph 13.8 mph N/A   Overcast
9:35 PM 21.2 °F 11.7 °F 15.8 °F 80% 30.32 in 10.0 mi NNW 8.1 mph - N/A   Overcast
9:55 PM 19.4 °F 8.6 °F 15.8 °F 86% 30.32 in 10.0 mi NNW 9.2 mph - N/A   Overcast
10:15 PM 17.6 °F 6.4 °F 14.0 °F 86% 30.32 in 10.0 mi NW 9.2 mph - N/A   Mostly Cloudy
10:35 PM 17.6 °F 7.3 °F 14.0 °F 86% 30.32 in 10.0 mi NW 8.1 mph - N/A   Partly Cloudy
10:55 PM 15.8 °F 5.1 °F 12.2 °F 86% 30.31 in 10.0 mi NW 8.1 mph - N/A   Clear
11:15 PM 15.8 °F 6.1 °F 12.2 °F 86% 30.30 in 10.0 mi NW 6.9 mph - N/A   Clear
11:35 PM 14.0 °F 2.0 °F 12.2 °F 93% 30.30 in 10.0 mi NW 9.2 mph - N/A   Clear
11:55 PM 12.2 °F 0.7 °F 10.4 °F 92% 30.30 in 10.0 mi NW 8.1 mph - N/A   Clear